TimeCDT,TemperatureF,Dew PointF,Humidity,Sea Level PressureIn,VisibilityMPH,Wind Direction,Wind SpeedMPH,Gust SpeedMPH,PrecipitationIn,Events,Conditions,WindDirDegrees,DateUTC
12:53 AM,64.0,57.0,78,29.91,10.0,North,4.6,-,N/A,,Scattered Clouds,350,2013-07-01 05:53:00
1:53 AM,64.0,57.0,78,29.91,10.0,North,6.9,-,N/A,,Scattered Clouds,350,2013-07-01 06:53:00
2:53 AM,64.9,57.9,78,29.90,10.0,North,9.2,-,N/A,,Partly Cloudy,350,2013-07-01 07:53:00
3:53 AM,64.0,59.0,84,29.91,10.0,North,8.1,-,N/A,,Clear,360,2013-07-01 08:53:00
4:53 AM,63.0,59.0,87,29.92,10.0,North,6.9,-,N/A,,Clear,350,2013-07-01 09:53:00
5:53 AM,62.1,59.0,90,29.93,10.0,North,8.1,-,N/A,,Clear,350,2013-07-01 10:53:00
6:53 AM,63.0,57.0,81,29.94,10.0,North,6.9,-,N/A,,Clear,350,2013-07-01 11:53:00
7:53 AM,64.9,55.9,73,29.96,10.0,North,8.1,-,N/A,,Clear,360,2013-07-01 12:53:00
8:53 AM,66.9,57.0,70,29.98,10.0,North,9.2,-,N/A,,Overcast,10,2013-07-01 13:53:00
9:53 AM,72.0,59.0,64,29.97,10.0,NNW,9.2,-,N/A,,Partly Cloudy,330,2013-07-01 14:53:00
10:53 AM,75.0,60.1,60,29.97,10.0,NNE,9.2,-,N/A,,Clear,20,2013-07-01 15:53:00
11:53 AM,77.0,60.1,56,29.97,10.0,NNE,10.4,18.4,N/A,,Mostly Cloudy,20,2013-07-01 16:53:00
12:53 PM,75.0,57.9,55,29.97,10.0,NNE,11.5,18.4,N/A,,Mostly Cloudy,20,2013-07-01 17:53:00
1:53 PM,77.0,57.9,52,29.96,10.0,North,10.4,19.6,N/A,,Scattered Clouds,360,2013-07-01 18:53:00
2:53 PM,75.9,57.0,52,29.96,10.0,North,13.8,19.6,N/A,,Mostly Cloudy,360,2013-07-01 19:53:00
3:53 PM,75.9,57.9,54,29.96,10.0,North,6.9,-,N/A,,Mostly Cloudy,360,2013-07-01 20:53:00
4:53 PM,78.1,57.0,48,29.96,10.0,NNW,10.4,-,N/A,,Scattered Clouds,330,2013-07-01 21:53:00
5:53 PM,73.9,57.9,57,29.96,10.0,Variable,4.6,-,N/A,Thunderstorm,Mostly Cloudy,0,2013-07-01 22:53:00
6:18 PM,73.4,57.2,57,29.99,10.0,North,9.2,-,N/A,,Scattered Clouds,350,2013-07-01 23:18:00
6:53 PM,73.0,57.0,57,29.98,10.0,NNW,4.6,-,N/A,,Clear,340,2013-07-01 23:53:00
7:53 PM,70.0,59.0,68,29.99,10.0,NNW,5.8,-,N/A,,Partly Cloudy,330,2013-07-02 00:53:00
8:53 PM,66.9,57.9,73,29.99,10.0,Calm,Calm,-,N/A,,Clear,0,2013-07-02 01:53:00
9:53 PM,66.0,57.9,75,29.99,10.0,NNW,3.5,-,N/A,,Clear,340,2013-07-02 02:53:00
10:53 PM,64.0,57.0,78,29.99,10.0,NNW,4.6,-,N/A,,Clear,340,2013-07-02 03:53:00
11:53 PM,63.0,55.9,78,29.99,10.0,NNW,4.6,-,N/A,,Clear,330,2013-07-02 04:53:00